EHI
0 0 0 0 0 0 0 0 0 0 0 0 0 0 1 4 5 5 5 5 5 5 6 9 11 10 9 10 11 10 9 10 10 8 6 6 6 6 4 3 3 3 3 3
0 0 0 0 0 0 0 0 0 0 0 0 0 0 1 3 4 4 4 4 5 7 8 10 12 10 9 10 11 10 9 10 10 8 7 7 7 6 4 3 3 3 3 2
0 0 0 0 0 0 0 0 0 0 0 0 0 0 1 2 3 3 3 3 5 8 9 10 11 10 9 9 10 10 11 10 8 8 8 7 7 6 4 4 3 3 2 1
0 0 0 0 0 0 0 0 0 0 0 0 0 1 2 3 4 4 3 3 5 8 8 9 10 10 9 9 9 10 11 10 8 8 8 6 5 4 5 4 4 3 1 0
0 0 0 0 0 0 0 0 0 0 0 0 0 1 2 4 6 6 4 4 7 8 9 10 10 10 10 9 9 9 11 11 10 11 10 7 4 4 4 4 3 2 1 0
0 0 0 0 0 0 0 0 0 0 0 0 0 0 1 4 6 7 5 5 8 10 11 11 11 11 11 10 9 10 14 16 15 14 12 8 6 4 3 3 2 1 1 1
0 0 0 0 0 0 0 0 0 0 0 0 0 1 2 2 3 4 4 4 7 10 11 13 14 14 13 12 12 16 21 22 19 15 12 10 7 5 4 3 3 2 2 2
0 0 0 0 0 0 0 0 0 0 0 0 0 2 3 2 2 2 2 4 6 8 11 14 16 16 15 16 18 21 24 24 21 17 14 13 11 7 4 3 3 3 3 3
0 0 0 0 0 0 0 0 0 0 0 0 0 1 2 3 4 3 2 3 5 6 9 13 15 16 16 17 20 23 25 25 22 20 18 16 14 11 7 4 4 4 4 4
0 0 0 0 0 0 0 0 0 0 0 0 0 0 1 4 5 3 2 3 4 5 7 10 13 15 15 16 18 21 25 25 23 21 19 17 15 13 10 8 7 7 7 6
0 0 0 0 0 0 0 0 0 0 0 0 0 0 1 3 4 2 2 3 3 4 5 7 11 14 14 13 14 18 22 23 21 19 17 15 14 14 12 11 11 10 9 9
0 0 0 0 0 0 0 0 0 0 0 0 0 0 2 3 4 3 3 4 5 5 5 6 9 14 14 11 10 13 18 19 18 17 16 16 16 15 14 13 12 11 9 8
0 0 0 0 0 0 0 0 0 0 0 0 0 1 3 4 5 5 5 7 8 8 7 7 10 14 15 12 10 11 13 16 17 18 18 19 20 19 15 12 11 9 7 7
0 0 0 0 0 0 0 0 0 0 0 0 0 1 2 4 6 8 8 8 10 11 9 9 13 15 14 13 12 11 13 17 21 22 23 23 22 20 16 13 12 10 8 7
0 0 0 0 0 0 0 0 0 0 0 0 1 2 1 3 6 8 8 9 11 11 11 12 15 15 14 14 13 14 19 23 26 26 25 24 21 20 18 16 14 13 11 11
0 0 0 0 0 0 0 0 0 0 0 0 2 3 2 2 6 7 7 9 11 11 13 15 17 16 16 15 16 18 22 25 26 26 25 22 21 20 19 18 16 15 14 14
0 0 0 0 0 0 0 0 0 0 0 0 2 3 2 2 4 6 7 9 11 11 13 16 17 19 18 18 18 19 18 19 20 20 19 18 18 18 18 16 16 15 15 14
0 0 0 0 0 0 0 0 0 0 0 1 3 3 3 3 4 4 7 11 13 12 13 15 18 20 20 19 18 16 13 12 12 13 13 13 14 14 14 14 13 13 14 14
0 0 0 0 0 0 0 0 0 1 1 2 3 3 3 4 4 5 8 13 14 15 16 17 18 19 19 17 14 12 10 8 7 8 9 9 10 10 11 12 13 13 13 14
0 0 0 0 0 0 0 0 0 1 2 3 4 4 3 3 5 7 11 12 13 14 16 18 19 19 17 13 9 8 7 6 6 7 7 6 6 6 8 10 11 12 14 15
0 0 0 0 0 0 0 0 0 1 3 5 8 8 6 5 7 11 13 14 12 12 14 18 20 18 14 10 7 6 5 5 6 6 6 5 4 4 5 7 8 10 12 15
1 1 1 0 0 0 0 1 1 3 5 8 10 10 10 10 11 13 16 15 12 12 15 18 18 16 12 9 8 7 7 6 6 6 5 5 5 4 4 5 6 8 10 11
2 2 2 1 0 0 0 1 3 5 7 9 10 11 13 14 14 15 15 14 12 13 15 16 14 11 9 8 8 9 9 8 7 7 5 5 6 6 5 5 5 6 7 7
2 3 3 2 1 1 1 2 3 5 7 8 11 13 14 15 14 14 13 12 11 12 13 13 11 9 8 8 8 8 8 8 8 7 6 6 7 7 6 6 5 5 5 5
1 1 3 2 2 2 3 4 4 5 6 8 12 14 14 13 11 11 10 9 10 10 9 9 10 10 9 8 8 8 7 7 7 7 6 5 5 6 6 6 5 4 4 4
0 1 2 2 2 4 5 6 6 6 5 9 14 15 12 11 8 7 7 9 9 9 7 7 11 11 9 8 8 7 6 6 6 6 6 4 4 4 5 6 4 3 3 3
Wind_Speed
5 6 3 1 2 3 2 2 1 1 1 3 3 2 2 5 6 6 6 6 6 5 5 5 5 4 4 3 3 2 2 2 1 0 0 0 1 1 1 1 2 2 2 2
7 5 1 1 2 3 3 3 1 1 1 3 3 4 2 4 6 6 6 6 7 6 6 5 5 5 5 4 3 3 3 2 1 0 0 1 1 0 1 1 2 2 2 2
6 1 1 3 4 5 4 4 2 2 2 5 6 5 4 5 5 6 6 6 6 6 6 6 6 5 5 4 4 3 2 2 1 0 1 0 0 0 1 1 1 2 2 2
5 3 4 5 4 6 4 1 3 4 6 2 5 4 3 4 5 5 6 6 6 6 6 6 7 6 6 5 4 4 3 2 1 1 1 1 1 1 2 1 2 2 2 2
4 4 6 6 3 5 2 1 3 5 6 5 5 6 2 4 3 3 4 5 5 5 6 6 6 6 6 5 5 5 4 3 2 1 1 2 1 1 1 1 1 2 1 2
5 4 4 3 1 3 3 4 5 7 7 5 2 6 0 2 1 1 2 2 3 4 5 6 6 6 6 6 6 5 5 4 3 3 2 1 1 1 2 2 2 1 1 1
8 7 5 4 5 6 7 7 5 5 4 1 1 5 2 3 2 0 1 2 3 4 4 5 6 7 6 6 6 6 5 4 4 3 3 2 2 1 1 2 1 2 1 1
8 7 7 6 6 4 6 8 6 6 5 2 3 3 3 3 2 1 1 2 3 3 4 4 5 6 6 7 6 6 6 5 4 4 4 3 2 2 1 1 2 1 2 2
5 4 5 4 4 6 5 6 6 8 8 7 2 1 2 3 2 3 3 3 3 3 4 4 4 5 6 6 6 6 6 5 5 4 4 3 2 2 1 1 2 1 1 1
6 5 5 4 6 4 5 4 5 7 6 6 4 3 1 2 1 1 1 2 2 3 4 4 4 4 5 6 6 6 6 5 5 4 4 3 3 2 2 2 1 1 2 2
8 7 6 7 7 6 6 6 6 6 7 8 7 2 4 1 1 1 1 1 2 3 4 4 4 4 5 5 6 6 6 5 4 3 3 2 2 2 2 2 1 1 1 1
6 7 6 6 3 4 7 7 8 7 6 7 8 2 4 1 1 1 1 1 2 2 3 3 4 4 4 4 5 5 5 5 4 4 4 3 3 2 2 2 2 1 2 2
4 7 8 8 9 7 7 6 8 9 7 7 7 1 5 2 1 1 1 2 2 3 3 3 3 3 3 3 3 4 5 5 5 4 4 4 3 3 2 2 2 1 2 2
6 9 9 9 5 3 6 7 8 9 8 7 6 4 1 1 0 1 1 1 2 3 3 3 3 3 2 2 2 2 3 3 4 4 4 3 3 2 2 2 2 2 2 2
7 9 9 8 7 8 9 9 9 11 10 9 7 6 3 2 1 0 1 1 2 2 2 2 2 2 2 1 1 1 2 2 3 3 3 3 3 2 2 2 2 2 2 2
5 7 7 9 8 9 10 10 10 10 10 10 9 6 2 1 1 1 1 1 1 2 1 1 2 2 2 1 1 2 1 2 2 2 2 2 2 2 2 2 2 2 2 2
5 6 8 9 7 10 12 9 9 8 7 8 8 3 1 1 1 1 1 1 1 1 1 1 1 2 2 2 2 2 2 2 2 1 0 1 1 1 1 1 1 2 2 2
6 7 7 8 7 13 4 1 4 5 3 3 3 1 1 1 2 2 1 1 0 0 0 0 0 1 2 2 3 2 2 2 2 1 0 1 1 1 1 2 2 2 2 3
8 7 7 8 11 10 5 4 5 6 5 3 3 1 1 1 3 3 2 1 0 1 1 0 0 1 2 2 3 3 2 2 1 1 0 1 1 2 2 2 3 3 3 3
7 8 9 9 11 10 3 2 2 5 6 1 2 1 1 2 4 1 3 1 1 1 1 1 2 2 2 2 2 2 1 1 1 1 1 1 1 2 2 3 3 3 4 4
8 8 10 11 11 7 0 1 5 8 1 3 1 1 1 2 3 3 2 2 1 1 1 2 2 1 1 1 1 1 0 0 1 1 1 1 1 2 2 3 3 3 4 4
8 8 9 9 11 5 3 2 2 3 4 2 1 1 1 1 2 2 2 1 1 1 1 1 1 1 1 1 1 1 1 1 1 1 2 2 2 3 2 2 3 3 4 4
5 4 4 4 2 3 3 3 3 3 3 3 3 2 1 1 0 1 1 1 1 1 0 1 1 1 1 0 0 1 1 1 1 2 2 2 3 3 3 3 3 3 3 4
3 2 4 4 3 1 1 1 3 4 4 4 4 3 2 2 0 0 1 1 1 0 0 0 0 0 0 0 0 1 1 2 2 2 2 2 2 3 2 3 3 3 3 3
3 3 5 6 3 3 2 3 4 5 5 4 4 3 3 2 1 1 1 1 1 0 0 1 1 1 1 1 1 2 2 2 3 2 2 3 2 2 2 2 2 3 2 3
5 5 6 4 1 4 3 3 5 5 4 3 3 3 2 2 2 2 1 1 1 1 1 1 1 1 1 2 2 2 2 2 2 2 2 2 2 2 2 2 1 0 2 2
Wind_Direction
208 234 236 308 310 331 309 308 319 40 113 254 253 257 200 185 199 200 192 187 191 193 182 173 169 164 161 155 156 162 151 136 194 208 288 263 106 66 63 62 49 24 9 13
219 227 261 256 232 251 256 258 246 162 180 269 271 262 222 197 210 212 208 202 202 196 188 180 173 173 175 168 171 177 177 164 203 87 330 306 348 13 54 14 40 13 13 356
247 309 152 225 240 248 253 268 283 283 238 233 260 226 198 183 202 207 214 215 213 207 201 188 180 182 178 176 179 182 175 158 165 219 227 125 172 245 85 47 40 17 10 14
238 224 221 240 248 263 259 300 271 252 258 245 269 284 165 177 190 201 212 211 210 207 205 194 182 182 184 182 174 178 178 178 168 208 240 269 320 1 20 359 27 16 11 358
212 207 230 247 266 266 313 279 247 252 263 269 239 273 134 158 201 206 206 206 209 208 199 192 190 184 186 180 176 175 174 171 171 198 226 257 300 347 3 8 24 350 25 357
238 217 246 264 234 215 189 209 219 234 248 256 284 280 22 106 294 219 186 189 194 195 191 191 187 181 183 179 179 180 170 171 173 176 179 220 295 322 342 351 348 329 27 22
210 203 195 215 210 190 226 249 247 235 233 266 87 271 32 50 40 276 191 165 169 180 184 184 183 185 187 188 184 180 170 175 174 175 184 199 223 232 261 293 326 317 343 21
215 200 187 208 242 245 240 268 284 299 309 314 217 267 67 53 66 92 129 138 151 171 177 177 182 184 186 188 183 181 179 185 185 186 192 203 216 232 221 253 302 313 327 1
234 195 164 200 239 254 243 254 290 284 276 277 268 169 150 126 117 109 119 128 141 155 160 166 170 175 179 183 181 183 184 187 193 195 192 193 207 244 269 260 260 289 313 316
249 233 197 180 202 212 276 279 258 271 289 286 272 243 196 165 157 136 129 124 133 148 149 145 153 164 168 172 171 178 181 187 192 196 200 184 196 211 226 251 307 315 314 323
243 236 208 203 225 228 208 227 251 272 286 290 295 334 59 137 198 184 148 120 138 157 153 144 143 148 158 167 172 177 180 186 189 191 191 200 201 204 208 217 230 246 279 294
230 249 239 223 218 276 252 252 249 262 271 272 287 344 90 106 145 137 108 104 111 145 149 144 141 143 156 170 177 180 186 189 189 185 189 194 201 205 209 205 222 235 254 264
213 244 236 215 199 196 228 241 256 268 270 268 277 323 107 109 121 109 91 110 128 138 135 136 138 137 147 165 175 188 193 192 192 185 190 189 195 200 214 220 226 231 243 263
247 248 256 266 279 247 234 235 245 256 262 273 279 292 268 233 245 79 108 140 144 144 148 149 144 134 140 160 172 195 200 194 190 188 189 191 200 212 227 234 240 237 242 258
241 243 248 261 272 266 258 251 241 252 271 283 292 294 297 272 288 1 124 137 140 142 147 150 145 129 139 149 164 167 175 175 182 191 193 195 200 211 228 235 246 251 253 256
246 245 243 247 247 247 252 250 248 252 260 264 268 281 357 351 145 157 142 141 129 124 126 148 149 139 148 152 145 136 154 157 161 175 185 200 208 214 223 236 242 250 257 269
232 234 247 250 246 249 243 244 244 244 256 266 273 298 106 205 195 194 168 149 109 69 75 118 149 142 141 144 142 152 151 145 146 149 193 279 249 248 262 268 261 257 256 259
241 241 245 251 242 246 257 250 246 249 261 276 300 322 263 238 205 169 134 140 134 67 247 168 119 128 125 107 108 112 122 129 136 137 162 273 279 284 270 265 269 270 267 264
229 234 245 245 241 243 231 219 236 246 243 275 274 280 262 223 195 165 97 51 26 41 37 72 107 112 104 101 100 99 97 98 97 75 0 310 308 306 298 293 284 279 273 268
197 221 242 243 252 253 236 136 249 255 238 216 233 212 174 208 243 90 70 48 19 31 54 78 92 104 105 96 101 113 106 89 55 21 346 321 305 294 293 298 292 285 275 272
196 211 232 242 249 251 355 197 217 241 325 63 112 160 210 252 337 43 57 57 47 65 87 96 103 94 83 79 103 143 138 61 4 345 330 309 297 276 277 286 291 295 290 293
229 224 224 237 245 241 70 192 242 9 25 22 2 327 291 0 47 65 71 70 76 84 97 93 91 73 65 68 125 172 206 251 247 271 292 295 297 294 299 290 292 294 290 280
244 286 275 267 275 56 62 60 35 1 340 336 320 312 293 260 92 76 76 79 94 100 62 64 79 78 47 17 242 216 265 271 249 238 251 275 291 295 297 284 282 278 277 287
192 269 256 243 213 183 135 35 344 329 319 310 307 302 287 274 260 137 139 124 105 66 2 151 154 131 344 318 240 235 261 255 242 243 255 258 270 283 291 292 298 300 309 311
275 241 241 241 240 239 232 315 328 325 317 316 320 297 276 254 222 213 210 172 165 147 301 275 256 236 256 258 249 248 249 245 245 248 257 264 277 299 298 305 323 312 335 330
236 244 254 263 257 278 289 313 317 316 314 312 301 293 263 223 214 224 218 190 193 200 233 256 259 258 267 267 266 262 257 251 257 254 257 265 277 286 285 290 281 2 253 220